Location: Zilina
(49.2170°N, 18.7330°E)
Time: 20:29:21
(UTC+02:00)

ISS - Pass Details

Date: 25 March 2019
Orbit: 408 x 410 km, 51.6° (Epoch: 25 April)

Event Time Altitude Azimuth Distance (km) Brightness Sun altitude
Rises 18:37:12 0° 227° (SW) 2,327 0.6 -6.0°
Reaches altitude 10° 18:39:20 10° 220° (SW) 1,468 -0.6 -6.4°
Maximum altitude 18:42:27 40° 149° (SSE) 612 -3.2 -6.9°
Drops below altitude 10° 18:45:35 10° 78° (ENE) 1,474 -1.6 -7.4°
Enters shadow 18:45:58 - 76° (ENE) 1,623 -1.3 -7.5°
